497  
ASUS45 KTFX 091810  
RWRMT  
MONTANA REGIONAL WEATHER ROUNDUP  
NATIONAL WEATHER SERVICE GREAT FALLS MT  
1100 AM MST FRI DEC 09 2022  
 
NOTE: "FAIR" INDICATES FEW OR NO CLOUDS BELOW 12,000 FEET WITH NO  
SIGNIFICANT WEATHER AND/OR S TO VISIBILITY
.  
 
MTZ001>007-043-091900-  
WEST OF THE DIVIDE  
 
CITY SKY/WX TMP DP RH WIND PRES REMARKS
 
KALISPELL CLOUDY 32 27 81 SE8 29.85R WCI 25  
MISSOULA CLOUDY 23 17 78 S5 29.93R WCI 17  
BUTTE FLURRIES 24 16 71 NE8 29.83R WCI 15  
ANACONDA N/A 28 18 64 CALM 29.85  
DEER LODGE N/A 28 19 69 CALM 29.88  
HAMILTON N/A 32 23 69 S7 29.91R WCI 26  
MULLAN PASS CLOUDY 22 17 81 VRB6 29.80R HAZE WCI 14  

 
 
MTZ008-052>055-091900-  
SOUTHWEST MONTANA  
 
CITY SKY/WX TMP DP RH WIND PRES REMARKS
 
BOZEMAN LGT SNOW 25 16 68 E7 29.86R WCI 17  
DILLON PTSUNNY 23 18 81 SE7 29.84R WCI 15  
ENNIS PTSUNNY 28 18 64 S16 29.88R WCI 17  
THREE FORKS N/A 32 21 64 W6 29.85R WCI 26  
TWIN BRIDGES MOCLDY 25 21 86 SE9 29.88S WCI 15  

 
 
MTZ009-010-012-014-046-048-049-054-091900-  
EAST SLOPES AND CENTRAL MONTANA  
 
CITY SKY/WX TMP DP RH WIND PRES REMARKS
 
CUT BANK MOSUNNY 31 21 66 W20G25 29.71S WCI 19  
GREAT FALLS PTSUNNY 31 20 63 SW14 29.77S WCI 21  
HELENA PTSUNNY 27 15 61 CALM 29.83R  
MALMSTROM AFB PTSUNNY 32 20 61 SW17 29.76S WCI 21  
AUGUSTA FAIR 26 17 67 S5 29.72R WCI 21  
BOWMANS CORNER FAIR 28 20 70 S15 29.71R WCI 17  
CHOTEAU N/A 30 18 59 SW8 29.74 WCI 23  
FAIRFIELD FAIR 30 19 64 W20 29.71S WCI 18  
POWER FAIR 28 18 66 S12 29.72S WCI 17  
RAYNESFORD CLOUDY 36 16 44 SW9 29.74S WCI 29  
ULM PTSUNNY 34 20 55 SW18 29.74S WCI 23  

 
 
MTZ011-013-016-021-045-047-050-051-091900-  
NORTH CENTRAL MONTANA  
 
CITY SKY/WX TMP DP RH WIND PRES REMARKS
 
HAVRE CLOUDY 29 19 66 SW13 29.75S WCI 19  
LEWISTOWN PTSUNNY 30 19 63 SW17 29.75F WCI 18  
CHINOOK N/A 16 9 73 E7 29.80 WCI 6  
DENTON FAIR 31 17 55 S5 29.74S WCI 26  
GEYSER PTSUNNY 33 19 57 W17 29.73S WCI 22  
GRASS RANGE CLOUDY 35 17 49 W20 29.69S WCI 23  
JUDITH GAP PTSUNNY 31 18 58 SW23 29.75F WCI 18  
N BAR RANCH FAIR 36 12 38 SW14G22 29.75F WCI 27  
ROY CLOUDY 35 20 55 SW6 29.71S WCI 30  
STANFORD PTSUNNY 32 19 59 W22 29.73S WCI 19  
WINIFRED CLOUDY 30 19 61 SW8 29.73S WCI 23  

 
 
MTZ017>020-022>027-061-062-091900-  
NORTHEAST MONTANA  
 
CITY SKY/WX TMP DP RH WIND PRES REMARKS
 
GLASGOW CLOUDY 13 7 77 E9 29.80F WCI 1  
CIRCLE N/A 32 18 55 S15 29.79 WCI 22  
CULBERTSON SUNNY 18 16 93 E7 29.85F WCI 8  
GLENDIVE PTSUNNY 14 8 77 S6 29.87F WCI 5  
JORDAN N/A 25 14 63 CALM 29.79F  
MALTA SUNNY 9 7 92 E6 29.79F WCI -1  
PLENTYWOOD PTSUNNY 12 9 85 SE7 29.84F WCI 2  
POPLAR CLOUDY 7 5 92 N6 29.85F WCI -3  
SIDNEY PTSUNNY 13 8 81 S8 29.89F WCI 2  
WOLF POINT CLOUDY 7 1 76 NE3 29.85F  

 
 
MTZ028>42-056>058-091900-  
SOUTHCENTRAL AND SOUTHEAST MONTANA  
 
CITY SKY/WX TMP DP RH WIND PRES REMARKS
 
BAKER PTSUNNY 14 9 80 SE8 29.85F WCI 3  
BIG TIMBER CLOUDY 30 16 55 SW7 29.82S WCI 23  
BILLINGS PTSUNNY 33 16 49 SW17 29.80F WCI 22  
FORSYTH N/A 10 7 85 CALM 29.85  
HARLOWTON PTSUNNY 25 14 63 NW7 29.78S WCI 17  
LAUREL N/A 34 16 47 W13 29.82 WCI 25  
LIVINGSTON PTSUNNY 35 17 47 W21G30 29.80R WCI 24  
MILES CITY FRZ RAIN 5 2 87 SE5 29.85F WCI -4  

 
 
REGIONAL REPORTS...DAKOTAS/MN  
 
CITY SKY/WX TMP DP RH WIND PRES REMARKS
 
WILLISTON MOCLDY 16 11 80 S8 29.85F WCI 5  
MINOT MOSUNNY 24 15 68 SE6 29.96F WCI 17  
DICKINSON PTSUNNY 21 15 78 SE8 29.87F WCI 11  
BEACH FAIR 18 12 79 SE8 29.86F WCI 7  
BOWMAN FAIR 16 16 100 SE10 29.86F WCI 3  
CROSBY FAIR 21 12 68 S17 29.86F WCI 7  
GLEN ULLIN FAIR 10 5 79 CALM 29.96F  
HETTINGER PTSUNNY 22 19 89 E8 29.90F WCI 12  
TIOGA FAIR 18 18 100 CALM 29.90F  
WATFORD CITY FAIR 18 18 100 E9 29.90F WCI 6  
BISMARCK MOSUNNY 7 3 84 E7 30.06F WCI -5  
GRAND FORKS FOG 19 17 92 S7 30.17F VSB 1/4 WCI 10  
FARGO CLOUDY 26 24 92 S7 30.19F FOG WCI 18  
BUFFALO SD N/A 25 19 78 E5 29.83F WCI 19  
RAPID CITY PTSUNNY 48 18 30 SW20G25 29.87F  
INTL FALLS N/A N/A N/A N/A MISG 30.25F  
DULUTH SUNNY 29 18 63 E14 30.25F WCI 18  
MINNEAPOLIS CLOUDY 30 23 75 NE7 30.24R WCI 23  

 
 
REGIONAL REPORTS...WY/CO/ID/WA/OR  
 
CITY SKY/WX TMP DP RH WIND PRES REMARKS
 
BUFFALO WY PTSUNNY 32 9 38 CALM 29.77F  
CODY MOSUNNY 34 11 38 S10 29.82F WCI 26  
GILLETTE PTSUNNY 35 16 45 SW26G44 29.77F WCI 22  
POWELL FAIR 28 9 43 SE12 29.81F WCI 18  
SHERIDAN CLOUDY 21 11 65 W3 29.80F  
YELLOWSTONE LA N/A 15 12 88 CALM 29.86S  
BOISE CLOUDY 33 27 78 CALM 30.09R  
COUER D'ALENE CLOUDY 31 29 92 W3 29.96R  
IDAHO FALLS CLOUDY 31 26 82 SW25G36 29.96R WCI 17  
SALMON LGT SNOW 20 16 84 CALM 29.96R FOG  
SPOKANE FOG 26 24 92 S6 29.94R VSB 1/2 WCI 19  
SEATTLE CLOUDY 40 33 76 S8 29.89F WCI 34  
PORTLAND LGT RAIN 40 37 89 E14 29.94F WCI 32  

 
 
OTHER REPORTS  
 
CITY SKY/WX TMP DP RH WIND PRES REMARKS
 
ATLANTA CLOUDY 70 62 76 NW3 30.10F  
ANCHORAGE CLEAR 9 3 77 E6 29.84R WCI -1  
BOSTON SUNNY 46 5 18 N16 30.21F  
CHICAGO LGT SNOW 36 32 85 E10 30.15S FOG WCI 28  
FAIRBANKS FLURRIES 14 7 73 W9 29.96R WCI 2  
HOUSTON PTSUNNY 79 69 71 S5 30.12F  
LAS VEGAS NV MOSUNNY 47 26 44 E3 30.18R  
PHOENIX AZ MOSUNNY 56 38 50 CALM 30.11F  
SALT LAKE CITY PTSUNNY 35 27 72 NW9 30.07R WCI 28  
SAN DIEGO SUNNY 56 42 59 VRB3 30.21S  
SAN FRANCISCO MOSUNNY 52 43 71 NE3 30.23R  
WASHINGTON DUL SUNNY 49 28 44 N6 30.27F  

 
 
REGIONAL REPORTS...ALBERTA  
 
CITY SKY/WX TMP DP RH WIND PRES REMARKS
 
CALGARY PTSUNNY 28 9 43 W8 29.62R WCI 20  
CARDSTON N/A 34 19 55 W8 N/A WCI 27  
CROWSNEST PASS N/A 30 19 64 NW12 N/A WCI 21  
DEL BONITA N/A 27 18 69 W12 N/A WCI 16  
EDMONTON PTSUNNY 23 12 63 W13 29.65R WCI 11  
FORT MCMURRAY MOCLDY 7 3 85 E5 29.63R WCI -2  
HIGH LEVEL FLURRIES 3 0 85 CALM 29.54R  
LETHBRIDGE PTSUNNY 30 21 69 SW8 29.70R WCI 23  
MEDICINE HAT CLOUDY 30 21 69 SW14 29.69R WCI 20  
MILK RIVER N/A 30 19 64 W7 N/A WCI 23  
ONEFOUR N/A 16 10 79 NE6 N/A WCI 7  
PINCHER CREEK SUNNY 30 19 64 W20G25 29.69S WCI 18  
RAYMOND N/A 30 19 64 SW8 N/A WCI 23  
WATERTON GATE N/A 27 21 80 S10 N/A WCI 17  
FORT SMITH NWT MOCLDY 1 -2 85 SW3 29.51R  

 
 
REGIONAL REPORTS...SASKATCHEWAN  
 
CITY SKY/WX TMP DP RH WIND PRES REMARKS
 
ASSINIBOIA N/A 18 9 68 S6 N/A WCI 9  
CORONACH N/A 10 7 85 SE6 N/A WCI 1  
CYPRESS HILLS N/A 21 12 68 SW5 N/A WCI 15  
ESTEVAN SUNNY 12 9 85 E9 29.86F WCI 0  
MOOSE JAW N/A 23 12 63 SE7 N/A WCI 15  
PRINCE ALBERT PTSUNNY 10 7 85 E5 29.73S WCI 2  
REGINA PTSUNNY 9 3 78 SE17 29.80F WCI -10  
ROCKGLEN N/A 19 10 68 SW7 N/A WCI 10  
SASKATOON CLOUDY 21 14 73 SE12 29.67F WCI 9  
SWIFT CURRENT SUNNY 27 16 63 SW21 29.67S WCI 13  
VAL MARIE N/A 7  
 
CLICK HERE TO GO TO PREVIOUS BULLETINS.

The Nexlab MT Page Main Text Page